FW4655 Weather Reports


Display with metric or nautical units.
time (UTC)temp
F
wind
direction
speed
MPH
gust
MPH
rain 1hr
in
rain 24hr
in
rain mn
in
humidity
%
barometer
mb
20260502190507 60 109 1.0 3.0 0.00 0.00 0.00 70 1016.3
20260502190019 59 340 0.0 4.0 0.00 0.00 0.00 72 1016.3
20260502185509 59 272 1.0 6.0 0.00 0.00 0.00 71 1016.4
20260502185010 59 35 2.0 6.0 0.00 0.00 0.00 71 1016.5
20260502184520 58 124 1.0 6.0 0.00 0.00 0.00 72 1016.4
20260502184006 58 107 3.0 6.0 0.00 0.00 0.00 72 1016.2
20260502183507 58 40 2.0 6.0 0.00 0.00 0.00 72 1016.3
20260502183020 57 29 2.0 6.0 0.00 0.00 0.00 73 1016.3
20260502182509 57 93 3.0 5.0 0.00 0.00 0.00 73 1016.4
20260502182009 57 35 2.0 5.0 0.00 0.00 0.00 74 1016.6
20260502181509 57 63 3.0 5.0 0.00 0.00 0.00 74 1016.6
20260502181006 57 75 2.0 5.0 0.00 0.00 0.00 74 1016.7
20260502180504 57 224 2.0 5.0 0.00 0.00 0.00 74 1016.7
20260502170507 54 94 0.0 4.0 0.00 0.00 0.00 79 1017.2
20260502164007 54 41 2.0 5.0 0.00 0.00 0.00 80 1017.0
20260502163507 53 90 2.0 7.0 0.00 0.00 0.00 79 1017.0
20260502163035 53 101 3.0 7.0 0.00 0.00 0.00 80 1016.9
20260502162508 53 103 0.0 7.0 0.00 0.00 0.00 81 1017.0
20260502162016 53 96 3.0 7.0 0.00 0.00 0.00 80 1017.0
20260502161529 53 51 1.0 7.0 0.00 0.00 0.00 80 1017.1
20260502161008 53 78 3.0 7.0 0.00 0.00 0.00 80 1017.1
20260502160506 53 77 2.0 5.0 0.00 0.00 0.00 80 1017.1
20260502152009 52 141 0.0 3.0 0.00 0.00 0.00 81 1017.1
20260502151520 52 25 1.0 3.0 0.00 0.00 0.00 81 1017.1
20260502151008 52 46 1.0 4.0 0.00 0.00 0.00 81 1017.2
20260502150511 52 88 1.0 4.0 0.00 0.00 0.00 80 1017.2
20260502130508 51 49 1.0 3.0 0.00 0.00 0.00 81 1017.0
20260502123508 51 65 1.0 4.0 0.00 0.00 0.00 81 1017.0
20260502123032 51 108 2.0 4.0 0.00 0.00 0.00 82 1017.0
20260502122514 51 107 2.0 4.0 0.00 0.00 0.00 82 1017.0
20260502122011 51 72 1.0 4.0 0.00 0.00 0.00 82 1017.1
20260502121528 51 86 1.0 8.0 0.00 0.00 0.00 82 1017.0
20260502121010 51 76 3.0 8.0 0.00 0.00 0.00 81 1016.9
20260502120516 51 44 1.0 5.0 0.00 0.00 0.00 82 1017.0
20260502115507 51 25 1.0 7.0 0.00 0.00 0.00 82 1017.0
20260502115007 51 58 2.0 8.0 0.00 0.00 0.00 82 1017.0
20260502114519 51 52 2.0 9.0 0.00 0.00 0.00 82 1017.0
20260502114008 51 54 4.0 9.0 0.00 0.00 0.00 81 1016.9
20260502113509 51 53 2.0 4.0 0.00 0.00 0.00 82 1017.0
20260502113029 51 48 2.0 5.0 0.00 0.00 0.00 82 1017.0
20260502112507 51 64 0.0 5.0 0.00 0.00 0.00 82 1017.1
20260502112010 51 18 3.0 8.0 0.00 0.00 0.00 81 1017.1
20260502111524 51 105 2.0 8.0 0.00 0.00 0.00 81 1016.7
20260502111011 51 52 2.0 5.0 0.00 0.00 0.00 81 1016.7
20260502110511 51 76 1.0 8.0 0.00 0.00 0.00 81 1017.0
20260502110028 52 41 3.0 8.0 0.00 0.00 0.00 81 1017.1
20260502105509 52 40 1.0 4.0 0.00 0.00 0.00 82 1017.0
20260502105010 52 95 2.0 4.0 0.00 0.00 0.00 81 1017.0
20260502104534 52 82 1.0 4.0 0.00 0.00 0.00 81 1017.0
20260502104006 52 96 2.0 4.0 0.00 0.00 0.00 81 1017.1
20260502103511 52 91 0.0 4.0 0.00 0.00 0.00 81 1017.2
20260502103022 52 84 0.0 3.0 0.00 0.00 0.00 82 1017.2
20260502102509 52 84 0.0 4.0 0.00 0.00 0.00 82 1017.3
20260502102011 52 86 1.0 4.0 0.00 0.00 0.00 82 1017.1
20260502101526 51 106 1.0 7.0 0.00 0.00 0.00 82 1016.8
20260502101010 52 111 2.0 7.0 0.00 0.00 0.00 82 1016.5
20260502100510 52 156 2.0 6.0 0.00 0.00 0.00 82 1016.6
20260502091524 52 113 0.0 3.0 0.00 0.00 0.00 83 1018.0
20260502091012 52 32 0.0 4.0 0.00 0.00 0.00 83 1018.2
20260502090510 52 83 1.0 4.0 0.00 0.00 0.00 82 1018.2
20260502071518 54 93 2.0 5.0 0.00 0.00 0.00 74 1017.9
20260502071005 54 96 0.0 3.0 0.00 0.00 0.00 74 1017.9
20260502070512 55 96 0.0 3.0 0.00 0.00 0.00 74 1017.7
20260502070022 55 94 0.0 3.0 0.00 0.00 0.00 74 1017.7
20260502065510 55 162 0.0 3.0 0.00 0.00 0.00 74 1017.9
20260502065003 55 83 0.0 4.0 0.00 0.00 0.00 74 1017.8
20260502064504 55 41 0.0 4.0 0.00 0.00 0.00 74 1017.8
20260502064004 55 77 2.0 4.0 0.00 0.00 0.00 74 1017.9
20260502063506 55 103 2.0 4.0 0.00 0.00 0.00 74 1017.8
20260502063008 55 74 2.0 4.0 0.00 0.00 0.00 73 1017.9
20260502062504 55 75 0.0 4.0 0.00 0.00 0.00 73 1017.9
20260502062007 56 96 2.0 6.0 0.00 0.00 0.00 73 1017.8
20260502061512 56 77 1.0 6.0 0.00 0.00 0.00 73 1017.8
20260502061007 56 69 2.0 6.0 0.00 0.00 0.00 72 1017.7
20260502060513 56 56 3.0 6.0 0.00 0.00 0.00 72 1017.8
20260502060018 56 75 2.0 5.0 0.00 0.00 0.00 72 1017.7
20260502055508 57 94 2.0 5.0 0.00 0.00 0.00 72 1017.7
20260502055011 57 94 2.0 5.0 0.00 0.00 0.00 72 1017.6
20260502054523 57 86 1.0 3.0 0.00 0.00 0.00 72 1017.6
20260502054010 57 119 1.0 3.0 0.00 0.00 0.00 72 1017.6
20260502053510 58 73 1.0 5.0 0.00 0.00 0.00 72 1017.5
20260502053005 58 54 2.0 6.0 0.00 0.00 0.00 72 1017.5
20260502052504 58 81 3.0 6.0 0.00 0.00 0.00 71 1017.5
20260502052006 58 101 2.0 4.0 0.00 0.00 0.00 71 1017.4
20260502051514 58 98 0.0 5.0 0.00 0.00 0.00 71 1017.4
20260502051004 58 99 2.0 8.0 0.00 0.00 0.00 71 1017.3
20260502050507 59 114 2.0 8.0 0.00 0.00 0.00 71 1017.2
20260502050013 59 72 2.0 5.0 0.00 0.00 0.00 71 1017.3
20260502045507 59 87 2.0 8.0 0.00 0.00 0.00 71 1017.3
20260502045008 60 42 2.0 8.0 0.00 0.00 0.00 70 1017.3
20260502044519 60 39 3.0 7.0 0.00 0.00 0.00 70 1017.3
20260502044008 60 106 1.0 4.0 0.00 0.00 0.00 70 1017.3
20260502043510 61 105 1.0 5.0 0.00 0.00 0.00 70 1017.3
20260502043029 61 94 1.0 5.0 0.00 0.00 0.00 69 1017.2
20260502042513 62 70 2.0 6.0 0.00 0.00 0.00 69 1017.2
20260502042013 62 80 2.0 8.0 0.00 0.00 0.00 69 1016.9
20260502041525 62 92 3.0 8.0 0.00 0.00 0.00 68 1016.8
20260502041004 63 52 3.0 6.0 0.00 0.00 0.00 68 1016.7
20260502040507 63 99 1.0 7.0 0.00 0.00 0.00 68 1016.6
20260502040011 63 45 4.0 7.0 0.00 0.00 0.00 68 1016.5
20260502035510 63 52 4.0 8.0 0.00 0.00 0.00 67 1016.4
20260502035008 64 58 3.0 8.0 0.00 0.00 0.00 67 1016.4
20260502034517 64 105 4.0 8.0 0.00 0.00 0.00 66 1016.2
20260502034008 64 91 3.0 7.0 0.00 0.00 0.00 66 1016.1
20260502033508 65 49 3.0 8.0 0.00 0.00 0.00 66 1016.0
20260502033023 65 44 3.0 8.0 0.00 0.00 0.00 66 1016.0
20260502032507 65 45 3.0 12.0 0.00 0.00 0.00 66 1015.9
20260502032010 66 108 4.0 12.0 0.00 0.00 0.00 65 1015.8
20260502031524 66 60 4.0 9.0 0.00 0.00 0.00 65 1015.8
20260502031011 67 57 3.0 8.0 0.00 0.00 0.00 64 1015.7
20260502030511 67 77 4.0 8.0 0.00 0.00 0.00 63 1015.6
20260502030026 68 131 2.0 7.0 0.00 0.00 0.00 62 1015.5
20260502025517 68 37 2.0 7.0 0.00 0.00 0.00 62 1015.4
20260502025006 68 56 3.0 6.0 0.00 0.00 0.00 62 1015.4
20260502024517 69 59 3.0 6.0 0.00 0.00 0.00 61 1015.3
20260502024007 69 79 3.0 6.0 0.00 0.00 0.00 60 1015.3
20260502023508 70 41 2.0 6.0 0.00 0.00 0.00 60 1015.3
20260502023006 70 98 2.0 6.0 0.00 0.00 0.00 59 1015.1
20260502022502 70 79 2.0 6.0 0.00 0.00 0.00 59 1015.1
20260502022004 70 49 2.0 10.0 0.00 0.00 0.00 59 1015.0
20260502021504 71 13 3.0 10.0 0.00 0.00 0.00 58 1015.0
20260502021004 71 49 2.0 8.0 0.00 0.00 0.00 57 1014.9
20260502020506 71 56 3.0 9.0 0.00 0.00 0.00 57 1014.9
20260502020006 71 77 3.0 9.0 0.00 0.00 0.00 56 1014.9
20260502015507 72 41 4.0 8.0 0.00 0.00 0.00 56 1014.9
20260502015005 72 47 4.0 8.0 0.00 0.00 0.00 56 1014.9
20260502014510 72 72 4.0 7.0 0.00 0.00 0.00 56 1014.8
20260502014004 72 49 3.0 8.0 0.00 0.00 0.00 55 1014.9
20260502013504 73 62 4.0 9.0 0.00 0.00 0.00 56 1014.8
20260502013015 73 57 5.0 9.0 0.00 0.00 0.00 55 1014.8
20260502012507 73 50 5.0 9.0 0.00 0.00 0.00 55 1014.9
20260502012012 73 85 4.0 9.0 0.00 0.00 0.00 54 1014.9
20260502011520 73 80 4.0 9.0 0.00 0.00 0.00 54 1014.7
20260502011004 74 86 3.0 9.0 0.00 0.00 0.00 54 1014.8
20260502010508 74 61 4.0 11.0 0.00 0.00 0.00 53 1014.8
20260502010018 74 113 3.0 11.0 0.00 0.00 0.00 52 1014.7
20260502005506 75 50 4.0 9.0 0.00 0.00 0.00 51 1014.7
20260502005007 75 347 2.0 5.0 0.00 0.00 0.00 48 1014.6
20260502004512 75 119 3.0 5.0 0.00 0.00 0.00 46 1014.7
20260502004010 76 349 1.0 7.0 0.00 0.00 0.00 44 1014.7
20260502003506 75 66 3.0 7.0 0.00 0.00 0.00 44 1014.7
20260502003010 75 49 4.0 7.0 0.00 0.00 0.00 44 1014.7
20260502002508 76 98 3.0 7.0 0.00 0.00 0.00 44 1014.7
20260502002011 76 40 1.0 6.0 0.00 0.00 0.00 44 1014.7
20260502001515 76 54 3.0 8.0 0.00 0.00 0.00 44 1014.8
20260502001012 76 108 3.0 8.0 0.00 0.00 0.00 45 1014.9
20260502000511 76 58 2.0 8.0 0.00 0.00 0.00 48 1014.8
20260502000022 75 58 2.0 5.0 0.00 0.00 0.00 48 1014.7
20260501235511 75 23 3.0 8.0 0.00 0.00 0.00 48 1014.7
20260501235007 75 333 3.0 8.0 0.00 0.00 0.00 50 1014.7
20260501234505 76 295 4.0 8.0 0.00 0.00 0.00 48 1014.7
20260501234004 75 252 0.0 4.0 0.00 0.00 0.00 49 1014.8
20260501233505 75 299 2.0 8.0 0.00 0.00 0.00 49 1014.9
20260501233010 75 354 2.0 8.0 0.00 0.00 0.00 50 1014.9
20260501232509 75 321 2.0 6.0 0.00 0.00 0.00 50 1015.0
20260501232006 75 52 2.0 6.0 0.00 0.00 0.00 49 1015.0
20260501231515 76 300 3.0 6.0 0.00 0.00 0.00 48 1015.1
20260501231007 76 203 2.0 5.0 0.00 0.00 0.00 49 1015.1
20260501230508 75 165 1.0 6.0 0.00 0.00 0.00 48 1015.3
20260501230018 75 342 2.0 6.0 0.00 0.00 0.00 48 1015.3
20260501225508 75 328 3.0 5.0 0.00 0.00 0.00 48 1015.4
20260501225008 76 328 2.0 4.0 0.00 0.00 0.00 48 1015.4
20260501224521 75 276 1.0 4.0 0.00 0.00 0.00 49 1015.5
20260501224009 75 236 2.0 4.0 0.00 0.00 0.00 49 1015.6
20260501223510 74 117 0.0 6.0 0.00 0.00 0.00 50 1015.6
20260501223004 73 163 2.0 6.0 0.00 0.00 0.00 50 1015.6
20260501222503 74 220 2.0 35.0 0.00 0.00 0.00 50 1015.7
20260501222009 73 214 1.0 35.0 0.00 0.00 0.00 50 1015.7
20260501221513 73 228 2.0 6.0 0.00 0.00 0.00 50 1015.8
20260501221007 73 223 3.0 6.0 0.00 0.00 0.00 50 1015.9
20260501220508 74 215 1.0 3.0 0.00 0.00 0.00 49 1015.9
20260501220016 74 79 1.0 4.0 0.00 0.00 0.00 50 1015.9
20260501215510 73 186 1.0 6.0 0.00 0.00 0.00 50 1016.0
20260501215007 73 166 4.0 6.0 0.00 0.00 0.00 51 1016.0
20260501214535 72 238 2.0 34.0 0.00 0.00 0.00 51 1016.2
20260501214014 72 212 3.0 34.0 0.00 0.00 0.00 51 1016.2
20260501213507 72 237 10.0 33.0 0.00 0.00 0.00 52 1016.4
20260501213025 72 179 3.0 7.0 0.00 0.00 0.00 51 1016.4
20260501212507 71 243 3.0 10.0 0.00 0.00 0.00 52 1016.5
20260501212010 72 223 3.0 10.0 0.00 0.00 0.00 52 1016.5
20260501211527 71 158 2.0 7.0 0.00 0.00 0.00 52 1016.6
20260501211006 71 288 2.0 7.0 0.00 0.00 0.00 52 1016.7
20260501210507 71 280 2.0 6.0 0.00 0.00 0.00 53 1016.7
20260501210016 71 296 2.0 6.0 0.00 0.00 0.00 52 1016.8
20260501205508 71 261 1.0 7.0 0.00 0.00 0.00 54 1016.8
20260501205007 71 204 2.0 7.0 0.00 0.00 0.00 53 1016.9
20260501204516 71 25 1.0 6.0 0.00 0.00 0.00 52 1017.0
20260501204009 71 285 3.0 6.0 0.00 0.00 0.00 53 1017.0
20260501203509 71 310 2.0 6.0 0.00 0.00 0.00 54 1017.0
20260501203023 71 308 3.0 7.0 0.00 0.00 0.00 53 1017.1
20260501202507 71 66 2.0 7.0 0.00 0.00 0.00 54 1017.1
20260501202008 70 254 0.0 5.0 0.00 0.00 0.00 54 1017.2
20260501201524 69 293 2.0 5.0 0.00 0.00 0.00 55 1017.2
20260501201014 69 238 1.0 8.0 0.00 0.00 0.00 55 1017.2
20260501200512 69 301 2.0 8.0 0.00 0.00 0.00 54 1017.2
20260501200035 69 2 3.0 7.0 0.00 0.00 0.00 56 1017.2
20260501195509 69 111 2.0 6.0 0.00 0.00 0.00 56 1017.2
20260501195007 69 316 1.0 6.0 0.00 0.00 0.00 57 1017.2
20260501194518 68 338 3.0 6.0 0.00 0.00 0.00 57 1017.2
20260501194007 69 13 2.0 11.0 0.00 0.00 0.00 56 1017.2
20260501193507 68 161 1.0 11.0 0.00 0.00 0.00 57 1017.2
20260501193019 68 92 3.0 9.0 0.00 0.00 0.00 58 1017.3
20260501192508 67 290 1.0 5.0 0.00 0.00 0.00 58 1017.4
20260501192009 68 310 2.0 6.0 0.00 0.00 0.00 57 1017.5
20260501191526 67 234 2.0 6.0 0.00 0.00 0.00 58 1017.5
20260501191018 67 181 4.0 6.0 0.00 0.00 0.00 58 1017.5